Easy to use

vPilot, FSInn, and Squawkbox

VATSIM has 3 different client software available to choose by the user. The 3 different softwares are relatively easy to use and enjoyable to the user's experience. The software's operating manual is available to download in case user has not been able to fully operate the software to get a real working pilot experience.

Radar that functions similarly to real ATC's radar

EuroScope & VRC

VATSIM uses an advanced radar client simulating real ATC experience in the real world. Although it said to be advanced, both radar clients are very easy to use. Another interesting point is VATSIM has the technology to break the limit between simulation and real life experience.

With VATSIM, you can learn more about aviation.
You can also discuss with other aviation geek.

Unforgettable Experience

Current Activity

ATC

Name Position
benson wong (1238741) WITT_TWR
No pilot currently online!

*This information may not be up to date.

METAR

Airport Name - Location (ICAO) METAR
Sultan Hasanuddin - Makassar (WAAA)METAR WAAA 200300Z VRB03KT 9999 SCT020 34/18 Q1011|NOSIG=
I Gusti Ngurah Rai - Denpasar (WADD)METAR WADD 200300Z 11013KT 9999 FEW017 28/23 Q1014|NOSIG=
Ahmad Yani - Semarang (WAHS)METAR WAHS 200300Z 09012KT 050V140 6000 FEW014 32/17 Q1012=
Juanda - Surabaya (WARR)METAR WARR 200300Z 15006KT 080V210 9999 FEW020 30/18 Q1013|NOSIG=
Soekarno Hatta - Jakarta (WIII)METAR WIII 200300Z 06012KT 030V100 8000 FEW020 32/20 Q1012|NOSIG=
Halim Perdana Kusuma - Jakarta (WIHH)METAR WIHH 200300Z 03010KT 5000 HZ SCT020 31/19 Q1013|NOSIG=
Kualanamu International Airport - Deli Serdang (WIMM)METAR WIMM 200300Z 18003KT 7000 BKN017 26/25 Q1013|NOSIG=

*METAR resource from BMKG. This information may not be up to date.

VATSIM Indonesia vACC VATSIM South East Asia VATSIM Asia